2023/01/27 00:00:00,38.7,-1.3
2023/01/27 00:10:00,38.5,-1.2
2023/01/27 00:20:00,38.4,-1.2
2023/01/27 00:30:00,38.3,-1.4
2023/01/27 00:40:00,38.1,-1.3
2023/01/27 00:50:00,38.0,-1.3
2023/01/27 01:00:00,38.0,-1.2
2023/01/27 01:10:00,38.2,-1.2
2023/01/27 01:20:00,38.3,-1.2
2023/01/27 01:30:00,38.1,-1.2
2023/01/27 01:40:00,37.8,-1.2
2023/01/27 01:50:00,37.6,-1.1
2023/01/27 02:00:00,37.6,-1.3
2023/01/27 02:10:00,37.6,-1.2
2023/01/27 02:20:00,37.7,-1.0
2023/01/27 02:30:00,37.7,-1.2
2023/01/27 02:40:00,37.7,-1.4
2023/01/27 02:50:00,37.7,-1.3
2023/01/27 03:00:00,37.7,-1.5
2023/01/27 03:10:00,37.7,-1.5
2023/01/27 03:20:00,37.6,-1.5
2023/01/27 03:30:00,37.5,-1.4
2023/01/27 03:40:00,37.4,-1.3
2023/01/27 03:50:00,37.4,-1.6
2023/01/27 04:00:00,37.4,-1.6
2023/01/27 04:10:00,37.4,-1.4
2023/01/27 04:20:00,37.4,-2.0
2023/01/27 04:30:00,37.5,-1.4
2023/01/27 04:40:00,37.4,-1.7
2023/01/27 04:50:00,37.2,-1.7
2023/01/27 05:00:00,37.1,-1.2
2023/01/27 05:10:00,37.0,-1.5
2023/01/27 05:20:00,37.0,-1.6
2023/01/27 05:30:00,37.0,-1.4
2023/01/27 05:40:00,37.3,-1.4
2023/01/27 05:50:00,37.6,-1.4
2023/01/27 06:00:00,37.7,-1.5
2023/01/27 06:10:00,37.8,-1.3
2023/01/27 06:20:00,37.8,-1.4
2023/01/27 06:30:00,37.8,-1.5
2023/01/27 06:40:00,37.8,-1.2
2023/01/27 06:50:00,37.7,-1.5
2023/01/27 07:00:00,38.0,-1.2
2023/01/27 07:10:00,38.3,-1.3
2023/01/27 07:20:00,38.4,-1.2
2023/01/27 07:30:00,38.5,-1.2
2023/01/27 07:40:00,38.4,-1.2
2023/01/27 07:50:00,38.5,-1.1
2023/01/27 08:00:00,38.7,-0.8
2023/01/27 08:10:00,38.8,-1.1
2023/01/27 08:20:00,38.8,-0.5
2023/01/27 08:30:00,38.8,-0.5
2023/01/27 08:40:00,38.8,-0.8
2023/01/27 08:50:00,39.0,-0.6
2023/01/27 09:00:00,39.1,-0.7
2023/01/27 09:10:00,39.3,-0.4
2023/01/27 09:20:00,39.5,-0.3
2023/01/27 09:30:00,39.5, 0.0
2023/01/27 09:40:00,39.6, 0.0
2023/01/27 09:50:00,39.6, 0.0
2023/01/27 10:00:00,39.6,-0.1
2023/01/27 10:10:00,39.7, 0.0
2023/01/27 10:20:00,39.7, 0.4
2023/01/27 10:30:00,39.6, 0.4
2023/01/27 10:40:00,39.5, 0.0
2023/01/27 10:50:00,39.5, 0.5
2023/01/27 11:00:00,39.5, 1.6
2023/01/27 11:10:00,39.3, 3.0
2023/01/27 11:20:00,39.2, 4.9
2023/01/27 11:30:00,38.9, 6.0
2023/01/27 11:40:00,38.5, 4.5
2023/01/27 11:50:00,38.0, 4.5
2023/01/27 12:00:00,37.7, 2.3
2023/01/27 12:10:00,37.6, 1.7
2023/01/27 12:20:00,37.5, 1.9
2023/01/27 12:30:00,37.5, 1.3
2023/01/27 12:40:00,37.4, 1.1
2023/01/27 12:50:00,37.2, 1.4
2023/01/27 13:00:00,37.2, 1.4
2023/01/27 13:10:00,36.9, 1.4
2023/01/27 13:20:00,36.7, 1.3
2023/01/27 13:30:00,36.6, 0.9
2023/01/27 13:40:00,36.8, 0.5
2023/01/27 13:50:00,37.2, 0.8
2023/01/27 14:00:00,37.0, 0.9
2023/01/27 14:10:00,36.8, 1.2
2023/01/27 14:20:00,36.6, 0.4
2023/01/27 14:30:00,36.7,-0.2
2023/01/27 14:40:00,37.6, 0.0
2023/01/27 14:50:00,38.5, 0.2
2023/01/27 15:00:00,38.7, 0.1
2023/01/27 15:10:00,38.8,-0.1
2023/01/27 15:20:00,38.8,-0.2
2023/01/27 15:30:00,39.2,-0.4
2023/01/27 15:40:00,39.8,-0.3
2023/01/27 15:50:00,39.8,-0.5
2023/01/27 16:00:00,40.2,-0.3
2023/01/27 16:10:00,41.0,-0.6
2023/01/27 16:20:00,41.5,-0.6
2023/01/27 16:30:00,42.0,-0.9
2023/01/27 16:40:00,43.8,-1.0
2023/01/27 16:50:00,45.1,-1.2
2023/01/27 17:00:00,45.7,-0.9
2023/01/27 17:10:00,46.1,-1.1
2023/01/27 17:20:00,46.2,-1.2
2023/01/27 17:30:00,46.2,-1.2
2023/01/27 17:40:00,46.1,-1.1
2023/01/27 17:50:00,46.0,-1.2
2023/01/27 18:00:00,46.0,-1.1
2023/01/27 18:10:00,46.1,-1.2
2023/01/27 18:20:00,46.0,-1.8
2023/01/27 18:30:00,45.8,-1.7
2023/01/27 18:40:00,45.6,-1.7
2023/01/27 18:50:00,45.6,-2.1
2023/01/27 19:00:00,45.5,-2.1
2023/01/27 19:10:00,45.5,-1.9
2023/01/27 19:20:00,45.5,-1.8
2023/01/27 19:30:00,45.5,-1.9
2023/01/27 19:40:00,45.5,-1.8
2023/01/27 19:50:00,45.5,-1.9
2023/01/27 20:00:00,45.4,-1.9
2023/01/27 20:10:00,45.9,-1.7
2023/01/27 20:20:00,46.0,-1.8
2023/01/27 20:30:00,46.1,-1.8
2023/01/27 20:40:00,46.4,-1.7
2023/01/27 20:50:00,46.2,-1.9
2023/01/27 21:00:00,46.0,-2.0
2023/01/27 21:10:00,46.5,-1.8
2023/01/27 21:20:00,46.4,-1.6
2023/01/27 21:30:00,46.3,-2.1
2023/01/27 21:40:00,46.1,-1.6
2023/01/27 21:50:00,46.0,-2.0
2023/01/27 22:00:00,45.9,-2.0
2023/01/27 22:10:00,45.8,-2.3
2023/01/27 22:20:00,45.7,-2.4
2023/01/27 22:30:00,45.5,-2.2
2023/01/27 22:40:00,45.4,-2.4
2023/01/27 22:50:00,45.3,-2.2
2023/01/27 23:00:00,45.1,-2.5
2023/01/27 23:10:00,45.0,-1.8
2023/01/27 23:20:00,44.9,-1.6
2023/01/27 23:30:00,44.9,-1.7
2023/01/27 23:40:00,44.9,-1.9
2023/01/27 23:50:00,44.8,-2.2
